owner,sensor,date,latitude,longitude,vertical_datum,mass_concentration_of_oxygen_in_sea_water,qcFlag 
DISL,ioos:station:DISL:DISL:1,2009-02-01T00:00:00Z,30.2513,-88.0778,5.415,12.5,1111122 
DISL,ioos:station:DISL:DISL:1,2009-02-01T00:30:00Z,30.2513,-88.0778,5.387,12.31,1111122 
DISL,ioos:station:DISL:DISL:1,2009-02-01T01:00:00Z,30.2513,-88.0778,5.375,11.91,1111122 
DISL,ioos:station:DISL:DISL:1,2009-02-01T01:30:00Z,30.2513,-88.0778,5.427,11.61,1111122 
DISL,ioos:station:DISL:DISL:1,2009-02-01T02:00:00Z,30.2513,-88.0778,5.332,11.28,1111122 
DISL,ioos:station:DISL:DISL:1,2009-02-01T02:30:00Z,30.2513,-88.0778,5.317,10.97,1111122 
DISL,ioos:station:DISL:DISL:1,2009-02-01T03:00:00Z,30.2513,-88.0778,5.298,10.89,1111122 
DISL,ioos:station:DISL:DISL:1,2009-02-01T03:30:00Z,30.2513,-88.0778,5.272,10.78,1111122 
DISL,ioos:station:DISL:DISL:1,2009-02-01T04:00:00Z,30.2513,-88.0778,5.215,10.57,1111122 
DISL,ioos:station:DISL:DISL:1,2009-02-01T04:30:00Z,30.2513,-88.0778,5.173,10.27,1111122 
DISL,ioos:station:DISL:DISL:1,2009-02-01T05:00:00Z,30.2513,-88.0778,5.124,9.95,1111122 
DISL,ioos:station:DISL:DISL:1,2009-02-01T05:30:00Z,30.2513,-88.0778,5.127,10.01,1111122 
DISL,ioos:station:DISL:DISL:1,2009-02-01T06:00:00Z,30.2513,-88.0778,5.062,9.95,1111122 
DISL,ioos:station:DISL:DISL:1,2009-02-01T06:30:00Z,30.2513,-88.0778,5.064,9.61,1111122 
DISL,ioos:station:DISL:DISL:1,2009-02-01T07:00:00Z,30.2513,-88.0778,5.098,9.85,1111122 
DISL,ioos:station:DISL:DISL:1,2009-02-01T07:30:00Z,30.2513,-88.0778,5.072,9.38,1111122 
DISL,ioos:station:DISL:DISL:1,2009-02-01T08:00:00Z,30.2513,-88.0778,5.097,9.71,1111122 
DISL,ioos:station:DISL:DISL:1,2009-02-01T08:30:00Z,30.2513,-88.0778,5.123,9.59,1111122 
DISL,ioos:station:DISL:DISL:1,2009-02-01T09:00:00Z,30.2513,-88.0778,5.169,9.81,1111122 
DISL,ioos:station:DISL:DISL:1,2009-02-01T09:30:00Z,30.2513,-88.0778,5.163,9.6,1111122 
DISL,ioos:station:DISL:DISL:1,2009-02-01T10:00:00Z,30.2513,-88.0778,5.141,10.25,1111122 
DISL,ioos:station:DISL:DISL:1,2009-02-01T10:30:00Z,30.2513,-88.0778,5.167,10.55,1111122 
DISL,ioos:station:DISL:DISL:1,2009-02-01T11:00:00Z,30.2513,-88.0778,5.151,10.84,1111122 
DISL,ioos:station:DISL:DISL:1,2009-02-01T11:30:00Z,30.2513,-88.0778,5.206,10.4,1111122 
DISL,ioos:station:DISL:DISL:1,2009-02-01T12:00:00Z,30.2513,-88.0778,5.252,9.66,1111122 
DISL,ioos:station:DISL:DISL:1,2009-02-01T12:30:00Z,30.2513,-88.0778,5.273,9.69,1111122 
DISL,ioos:station:DISL:DISL:1,2009-02-01T13:00:00Z,30.2513,-88.0778,5.296,9.42,1111122 
DISL,ioos:station:DISL:DISL:1,2009-02-01T13:30:00Z,30.2513,-88.0778,5.345,9.42,1111122 
DISL,ioos:station:DISL:DISL:1,2009-02-01T14:00:00Z,30.2513,-88.0778,5.427,9.43,1111122 
DISL,ioos:station:DISL:DISL:1,2009-02-01T14:30:00Z,30.2513,-88.0778,5.479,9.22,1111122 
DISL,ioos:station:DISL:DISL:1,2009-02-01T15:00:00Z,30.2513,-88.0778,5.55,9.09,1111122 
DISL,ioos:station:DISL:DISL:1,2009-02-01T15:30:00Z,30.2513,-88.0778,5.606,8.29,1111122 
DISL,ioos:station:DISL:DISL:1,2009-02-01T16:00:00Z,30.2513,-88.0778,5.646,7.76,1111122 
DISL,ioos:station:DISL:DISL:1,2009-02-01T16:30:00Z,30.2513,-88.0778,5.691,7.24,1111122 
DISL,ioos:station:DISL:DISL:1,2009-02-01T17:00:00Z,30.2513,-88.0778,5.762,7.46,1111122 
DISL,ioos:station:DISL:DISL:1,2009-02-01T17:30:00Z,30.2513,-88.0778,5.784,7.18,1111122 
DISL,ioos:station:DISL:DISL:1,2009-02-01T18:00:00Z,30.2513,-88.0778,5.827,6.79,1111122 
DISL,ioos:station:DISL:DISL:1,2009-02-01T18:30:00Z,30.2513,-88.0778,5.904,7.13,1111122 
DISL,ioos:station:DISL:DISL:1,2009-02-01T19:00:00Z,30.2513,-88.0778,5.988,7.19,1111122 
DISL,ioos:station:DISL:DISL:1,2009-02-01T19:30:00Z,30.2513,-88.0778,6.09,7.34,1111122 
DISL,ioos:station:DISL:DISL:1,2009-02-01T20:00:00Z,30.2513,-88.0778,6.118,7.19,1111122 
DISL,ioos:station:DISL:DISL:1,2009-02-01T20:30:00Z,30.2513,-88.0778,6.137,7.38,1111122 
DISL,ioos:station:DISL:DISL:1,2009-02-01T21:00:00Z,30.2513,-88.0778,6.175,7.33,1111122 
DISL,ioos:station:DISL:DISL:1,2009-02-01T21:30:00Z,30.2513,-88.0778,6.22,7.35,1111122 
DISL,ioos:station:DISL:DISL:1,2009-02-01T22:00:00Z,30.2513,-88.0778,6.224,7.54,1111122 
DISL,ioos:station:DISL:DISL:1,2009-02-01T22:30:00Z,30.2513,-88.0778,6.153,8.14,1111122 
DISL,ioos:station:DISL:DISL:1,2009-02-01T23:00:00Z,30.2513,-88.0778,6.124,8.9,1111122 
DISL,ioos:station:DISL:DISL:1,2009-02-01T23:30:00Z,30.2513,-88.0778,6.1,9.49,1111122 
DISL,ioos:station:DISL:DISL:1,2009-02-02T00:00:00Z,30.2513,-88.0778,6.1,11.13,1111122 
DISL,ioos:station:DISL:DISL:1,2009-02-02T00:30:00Z,30.2513,-88.0778,6.04,11.75,1111122 
DISL,ioos:station:DISL:DISL:1,2009-02-02T01:00:00Z,30.2513,-88.0778,6.049,11.89,1111122 
DISL,ioos:station:DISL:DISL:1,2009-02-02T01:30:00Z,30.2513,-88.0778,6.002,11.19,1111122 
DISL,ioos:station:DISL:DISL:1,2009-02-02T02:00:00Z,30.2513,-88.0778,5.983,11.05,1111122 
DISL,ioos:station:DISL:DISL:1,2009-02-02T02:30:00Z,30.2513,-88.0778,5.921,10.85,1111122 
DISL,ioos:station:DISL:DISL:1,2009-02-02T03:00:00Z,30.2513,-88.0778,5.858,10.41,1111122 
DISL,ioos:station:DISL:DISL:1,2009-02-02T03:30:00Z,30.2513,-88.0778,5.824,10.44,1111122 
DISL,ioos:station:DISL:DISL:1,2009-02-02T04:00:00Z,30.2513,-88.0778,5.752,10.36,1111122 
DISL,ioos:station:DISL:DISL:1,2009-02-02T04:30:00Z,30.2513,-88.0778,5.782,10.45,1111122 
DISL,ioos:station:DISL:DISL:1,2009-02-02T05:00:00Z,30.2513,-88.0778,5.675,10.37,1111122 
DISL,ioos:station:DISL:DISL:1,2009-02-02T05:30:00Z,30.2513,-88.0778,5.654,10.39,1111122 
DISL,ioos:station:DISL:DISL:1,2009-02-02T06:00:00Z,30.2513,-88.0778,5.588,10.36,1111122 
DISL,ioos:station:DISL:DISL:1,2009-02-02T06:30:00Z,30.2513,-88.0778,5.54,10.35,1111122 
DISL,ioos:station:DISL:DISL:1,2009-02-02T07:00:00Z,30.2513,-88.0778,5.593,10.17,1111122 
DISL,ioos:station:DISL:DISL:1,2009-02-02T07:30:00Z,30.2513,-88.0778,5.535,10.12,1111122 
DISL,ioos:station:DISL:DISL:1,2009-02-02T08:00:00Z,30.2513,-88.0778,5.543,9.23,1111122 
DISL,ioos:station:DISL:DISL:1,2009-02-02T08:30:00Z,30.2513,-88.0778,5.581,9.07,1111122 
DISL,ioos:station:DISL:DISL:1,2009-02-02T09:00:00Z,30.2513,-88.0778,5.613,9.06,1111122 
DISL,ioos:station:DISL:DISL:1,2009-02-02T09:30:00Z,30.2513,-88.0778,5.711,9.29,1111122 
DISL,ioos:station:DISL:DISL:1,2009-02-02T10:00:00Z,30.2513,-88.0778,5.721,9.18,1111122 
DISL,ioos:station:DISL:DISL:1,2009-02-02T10:30:00Z,30.2513,-88.0778,5.813,9.23,1111122 
DISL,ioos:station:DISL:DISL:1,2009-02-02T11:00:00Z,30.2513,-88.0778,5.84,9.17,1111122 
DISL,ioos:station:DISL:DISL:1,2009-02-02T11:30:00Z,30.2513,-88.0778,5.889,9.22,1111122 
DISL,ioos:station:DISL:DISL:1,2009-02-02T12:00:00Z,30.2513,-88.0778,5.89,9.15,1111122 
DISL,ioos:station:DISL:DISL:1,2009-02-02T12:30:00Z,30.2513,-88.0778,5.992,9.24,1111122 
DISL,ioos:station:DISL:DISL:1,2009-02-02T13:00:00Z,30.2513,-88.0778,6.018,9.17,1111122 
DISL,ioos:station:DISL:DISL:1,2009-02-02T13:30:00Z,30.2513,-88.0778,6.027,9.04,1111122 
DISL,ioos:station:DISL:DISL:1,2009-02-02T14:00:00Z,30.2513,-88.0778,6.218,8.19,1111122 
DISL,ioos:station:DISL:DISL:1,2009-02-02T14:30:00Z,30.2513,-88.0778,6.199,7.95,1111122 
DISL,ioos:station:DISL:DISL:1,2009-02-02T15:00:00Z,30.2513,-88.0778,6.223,7.94,1111122 
DISL,ioos:station:DISL:DISL:1,2009-02-02T15:30:00Z,30.2513,-88.0778,6.332,8.03,1111122 
DISL,ioos:station:DISL:DISL:1,2009-02-02T16:00:00Z,30.2513,-88.0778,6.394,7.81,1111122 
DISL,ioos:station:DISL:DISL:1,2009-02-02T16:30:00Z,30.2513,-88.0778,6.482,7.74,1111122 
DISL,ioos:station:DISL:DISL:1,2009-02-02T17:00:00Z,30.2513,-88.0778,6.477,7.82,1111122 
DISL,ioos:station:DISL:DISL:1,2009-02-02T17:30:00Z,30.2513,-88.0778,6.638,8.36,1111122 
DISL,ioos:station:DISL:DISL:1,2009-02-02T18:00:00Z,30.2513,-88.0778,6.521,9.82,1111122 
DISL,ioos:station:DISL:DISL:1,2009-02-02T18:30:00Z,30.2513,-88.0778,6.499,9.81,1111122 
DISL,ioos:station:DISL:DISL:1,2009-02-02T19:00:00Z,30.2513,-88.0778,6.64,9.66,1111122 
DISL,ioos:station:DISL:DISL:1,2009-02-02T19:30:00Z,30.2513,-88.0778,6.638,8.94,1111122 
DISL,ioos:station:DISL:DISL:1,2009-02-02T20:00:00Z,30.2513,-88.0778,6.66,10.64,1111122 
DISL,ioos:station:DISL:DISL:1,2009-02-02T20:30:00Z,30.2513,-88.0778,6.65,10.39,1111122 
DISL,ioos:station:DISL:DISL:1,2009-02-02T21:00:00Z,30.2513,-88.0778,6.264,10.28,1111122 
DISL,ioos:station:DISL:DISL:1,2009-02-02T21:30:00Z,30.2513,-88.0778,6.467,10.28,1111122 
DISL,ioos:station:DISL:DISL:1,2009-02-02T22:00:00Z,30.2513,-88.0778,6.589,10.21,1111122 
DISL,ioos:station:DISL:DISL:1,2009-02-02T22:30:00Z,30.2513,-88.0778,6.335,10.14,1111122 
DISL,ioos:station:DISL:DISL:1,2009-02-02T23:00:00Z,30.2513,-88.0778,6.013,9.85,1111122 
DISL,ioos:station:DISL:DISL:1,2009-02-02T23:30:00Z,30.2513,-88.0778,6.857,9.71,1111122 
DISL,ioos:station:DISL:DISL:1,2009-02-03T00:00:00Z,30.2513,-88.0778,6.41,9.58,1111122 
DISL,ioos:station:DISL:DISL:1,2009-02-03T00:30:00Z,30.2513,-88.0778,6.735,9.89,1111122 
DISL,ioos:station:DISL:DISL:1,2009-02-03T01:00:00Z,30.2513,-88.0778,6.227,9.93,1111122 
DISL,ioos:station:DISL:DISL:1,2009-02-03T01:30:00Z,30.2513,-88.0778,5.816,9.89,1111122 
DISL,ioos:station:DISL:DISL:1,2009-02-03T02:00:00Z,30.2513,-88.0778,5.835,9.81,1111122 
DISL,ioos:station:DISL:DISL:1,2009-02-03T02:30:00Z,30.2513,-88.0778,5.713,9.77,1111122 
DISL,ioos:station:DISL:DISL:1,2009-02-03T03:00:00Z,30.2513,-88.0778,5.418,9.72,1111122 
DISL,ioos:station:DISL:DISL:1,2009-02-03T03:30:00Z,30.2513,-88.0778,5.285,9.62,1111122 
DISL,ioos:station:DISL:DISL:1,2009-02-03T04:00:00Z,30.2513,-88.0778,5.431,9.57,1111122 
DISL,ioos:station:DISL:DISL:1,2009-02-03T04:30:00Z,30.2513,-88.0778,5.38,9.58,1111122 
DISL,ioos:station:DISL:DISL:1,2009-02-03T05:00:00Z,30.2513,-88.0778,5.04,9.54,1111122 
DISL,ioos:station:DISL:DISL:1,2009-02-03T05:30:00Z,30.2513,-88.0778,4.947,9.5,1111122 
DISL,ioos:station:DISL:DISL:1,2009-02-03T06:00:00Z,30.2513,-88.0778,5.196,9.5,1111122 
DISL,ioos:station:DISL:DISL:1,2009-02-03T06:30:00Z,30.2513,-88.0778,5.103,9.46,1111122 
DISL,ioos:station:DISL:DISL:1,2009-02-03T07:00:00Z,30.2513,-88.0778,5.159,9.48,1111122 
DISL,ioos:station:DISL:DISL:1,2009-02-03T07:30:00Z,30.2513,-88.0778,4.859,9.48,1111122 
DISL,ioos:station:DISL:DISL:1,2009-02-03T08:00:00Z,30.2513,-88.0778,5.003,9.45,1111122 
DISL,ioos:station:DISL:DISL:1,2009-02-03T08:30:00Z,30.2513,-88.0778,5.02,9.38,1111122 
DISL,ioos:station:DISL:DISL:1,2009-02-03T09:00:00Z,30.2513,-88.0778,5.008,9.34,1111122 
DISL,ioos:station:DISL:DISL:1,2009-02-03T09:30:00Z,30.2513,-88.0778,5.103,9.29,1111122 
DISL,ioos:station:DISL:DISL:1,2009-02-03T10:00:00Z,30.2513,-88.0778,5.027,9.06,1111122 
DISL,ioos:station:DISL:DISL:1,2009-02-03T10:30:00Z,30.2513,-88.0778,5.1,9.11,1111122 
DISL,ioos:station:DISL:DISL:1,2009-02-03T11:00:00Z,30.2513,-88.0778,5.215,9.44,1111122 
DISL,ioos:station:DISL:DISL:1,2009-02-03T11:30:00Z,30.2513,-88.0778,5.236,9.47,1111122 
DISL,ioos:station:DISL:DISL:1,2009-02-03T12:00:00Z,30.2513,-88.0778,5.254,8.93,1111122 
DISL,ioos:station:DISL:DISL:1,2009-02-03T12:30:00Z,30.2513,-88.0778,5.283,8.72,1111122 
DISL,ioos:station:DISL:DISL:1,2009-02-03T13:00:00Z,30.2513,-88.0778,5.288,8.45,1111122 
DISL,ioos:station:DISL:DISL:1,2009-02-03T13:30:00Z,30.2513,-88.0778,5.36,8.69,1111122 
DISL,ioos:station:DISL:DISL:1,2009-02-03T14:00:00Z,30.2513,-88.0778,5.467,9.1,1111122 
DISL,ioos:station:DISL:DISL:1,2009-02-03T14:30:00Z,30.2513,-88.0778,5.529,9.18,1111122 
DISL,ioos:station:DISL:DISL:1,2009-02-03T15:00:00Z,30.2513,-88.0778,5.6,9.2,1111122 
DISL,ioos:station:DISL:DISL:1,2009-02-03T15:30:00Z,30.2513,-88.0778,5.674,9.25,1111122 
DISL,ioos:station:DISL:DISL:1,2009-02-03T16:00:00Z,30.2513,-88.0778,5.708,9.03,1111122 
DISL,ioos:station:DISL:DISL:1,2009-02-03T16:30:00Z,30.2513,-88.0778,5.829,9.11,1111122 
DISL,ioos:station:DISL:DISL:1,2009-02-03T17:00:00Z,30.2513,-88.0778,5.868,8.72,1111122 
DISL,ioos:station:DISL:DISL:1,2009-02-03T17:30:00Z,30.2513,-88.0778,5.969,7.48,1111122 
DISL,ioos:station:DISL:DISL:1,2009-02-03T18:00:00Z,30.2513,-88.0778,6.033,7.87,1111122 
DISL,ioos:station:DISL:DISL:1,2009-02-03T18:30:00Z,30.2513,-88.0778,6.129,8.15,1111122 
DISL,ioos:station:DISL:DISL:1,2009-02-03T19:00:00Z,30.2513,-88.0778,6.203,8.0,1111122 
DISL,ioos:station:DISL:DISL:1,2009-02-03T19:30:00Z,30.2513,-88.0778,6.227,8.74,1111122 
DISL,ioos:station:DISL:DISL:1,2009-02-03T20:00:00Z,30.2513,-88.0778,6.233,8.83,1111122 
DISL,ioos:station:DISL:DISL:1,2009-02-03T20:30:00Z,30.2513,-88.0778,6.294,8.12,1111122 
DISL,ioos:station:DISL:DISL:1,2009-02-03T21:00:00Z,30.2513,-88.0778,6.291,9.48,1111122 
DISL,ioos:station:DISL:DISL:1,2009-02-03T21:30:00Z,30.2513,-88.0778,6.317,10.41,1111122 
DISL,ioos:station:DISL:DISL:1,2009-02-03T22:00:00Z,30.2513,-88.0778,6.315,10.86,1111122 
DISL,ioos:station:DISL:DISL:1,2009-02-03T22:30:00Z,30.2513,-88.0778,6.29,11.23,1111122 
DISL,ioos:station:DISL:DISL:1,2009-02-03T23:00:00Z,30.2513,-88.0778,6.342,11.34,1111122 
DISL,ioos:station:DISL:DISL:1,2009-02-03T23:30:00Z,30.2513,-88.0778,6.341,11.29,1111122 
DISL,ioos:station:DISL:DISL:1,2009-02-04T00:00:00Z,30.2513,-88.0778,6.278,11.21,1111122 
DISL,ioos:station:DISL:DISL:1,2009-02-04T00:30:00Z,30.2513,-88.0778,6.276,11.13,1111122 
DISL,ioos:station:DISL:DISL:1,2009-02-04T01:00:00Z,30.2513,-88.0778,6.243,11.04,1111122 
DISL,ioos:station:DISL:DISL:1,2009-02-04T01:30:00Z,30.2513,-88.0778,6.121,10.85,1111122 
DISL,ioos:station:DISL:DISL:1,2009-02-04T02:00:00Z,30.2513,-88.0778,6.068,10.71,1111122 
DISL,ioos:station:DISL:DISL:1,2009-02-04T02:30:00Z,30.2513,-88.0778,5.96,10.61,1111122 
DISL,ioos:station:DISL:DISL:1,2009-02-04T03:00:00Z,30.2513,-88.0778,5.903,10.53,1111122 
DISL,ioos:station:DISL:DISL:1,2009-02-04T03:30:00Z,30.2513,-88.0778,5.832,10.09,1111122 
DISL,ioos:station:DISL:DISL:1,2009-02-04T04:00:00Z,30.2513,-88.0778,5.715,9.76,1111122 
DISL,ioos:station:DISL:DISL:1,2009-02-04T04:30:00Z,30.2513,-88.0778,5.676,9.76,1111122 
DISL,ioos:station:DISL:DISL:1,2009-02-04T05:00:00Z,30.2513,-88.0778,5.546,9.61,1111122 
DISL,ioos:station:DISL:DISL:1,2009-02-04T05:30:00Z,30.2513,-88.0778,5.196,9.52,1111122 
DISL,ioos:station:DISL:DISL:1,2009-02-04T06:00:00Z,30.2513,-88.0778,5.389,9.4,1111122 
DISL,ioos:station:DISL:DISL:1,2009-02-04T06:30:00Z,30.2513,-88.0778,5.13,9.36,1111122 
DISL,ioos:station:DISL:DISL:1,2009-02-04T07:00:00Z,30.2513,-88.0778,5.056,9.27,1111122 
DISL,ioos:station:DISL:DISL:1,2009-02-04T07:30:00Z,30.2513,-88.0778,5.304,9.33,1111122 
DISL,ioos:station:DISL:DISL:1,2009-02-04T08:00:00Z,30.2513,-88.0778,4.939,9.28,1111122 
DISL,ioos:station:DISL:DISL:1,2009-02-04T08:30:00Z,30.2513,-88.0778,4.681,9.3,1111122 
DISL,ioos:station:DISL:DISL:1,2009-02-04T09:00:00Z,30.2513,-88.0778,4.757,9.37,1111122 
DISL,ioos:station:DISL:DISL:1,2009-02-04T09:30:00Z,30.2513,-88.0778,4.528,9.37,1111122 
DISL,ioos:station:DISL:DISL:1,2009-02-04T10:00:00Z,30.2513,-88.0778,4.147,9.32,1111122 
DISL,ioos:station:DISL:DISL:1,2009-02-04T10:30:00Z,30.2513,-88.0778,4.929,9.36,1111122 
DISL,ioos:station:DISL:DISL:1,2009-02-04T11:00:00Z,30.2513,-88.0778,4.597,9.37,1111122 
DISL,ioos:station:DISL:DISL:1,2009-02-04T11:30:00Z,30.2513,-88.0778,4.538,9.47,1111122 
DISL,ioos:station:DISL:DISL:1,2009-02-04T12:00:00Z,30.2513,-88.0778,4.63,9.56,1111122 
DISL,ioos:station:DISL:DISL:1,2009-02-04T12:30:00Z,30.2513,-88.0778,4.455,9.56,1111122 
DISL,ioos:station:DISL:DISL:1,2009-02-04T13:00:00Z,30.2513,-88.0778,4.595,9.61,1111122 
DISL,ioos:station:DISL:DISL:1,2009-02-04T13:30:00Z,30.2513,-88.0778,4.283,9.66,1111122 
DISL,ioos:station:DISL:DISL:1,2009-02-04T14:00:00Z,30.2513,-88.0778,4.545,9.74,1111122 
DISL,ioos:station:DISL:DISL:1,2009-02-04T14:30:00Z,30.2513,-88.0778,4.701,9.81,1111122 
DISL,ioos:station:DISL:DISL:1,2009-02-04T15:00:00Z,30.2513,-88.0778,4.667,9.71,1111122 
DISL,ioos:station:DISL:DISL:1,2009-02-04T15:30:00Z,30.2513,-88.0778,4.74,9.67,1111122 
DISL,ioos:station:DISL:DISL:1,2009-02-04T16:00:00Z,30.2513,-88.0778,4.738,9.22,1111122 
DISL,ioos:station:DISL:DISL:1,2009-02-04T16:30:00Z,30.2513,-88.0778,4.74,8.48,1111122 
DISL,ioos:station:DISL:DISL:1,2009-02-04T17:00:00Z,30.2513,-88.0778,4.895,9.81,1111122 
DISL,ioos:station:DISL:DISL:1,2009-02-04T17:30:00Z,30.2513,-88.0778,5.012,10.05,1111122 
DISL,ioos:station:DISL:DISL:1,2009-02-04T18:00:00Z,30.2513,-88.0778,5.154,10.32,1111122 
DISL,ioos:station:DISL:DISL:1,2009-02-04T18:30:00Z,30.2513,-88.0778,5.246,11.05,1111122 
DISL,ioos:station:DISL:DISL:1,2009-02-04T19:00:00Z,30.2513,-88.0778,5.294,10.76,1111122 
DISL,ioos:station:DISL:DISL:1,2009-02-04T19:30:00Z,30.2513,-88.0778,5.399,10.76,1111122 
DISL,ioos:station:DISL:DISL:1,2009-02-04T20:00:00Z,30.2513,-88.0778,5.479,11.07,1111122 
DISL,ioos:station:DISL:DISL:1,2009-02-04T20:30:00Z,30.2513,-88.0778,5.615,10.95,1111122 
DISL,ioos:station:DISL:DISL:1,2009-02-04T21:00:00Z,30.2513,-88.0778,5.689,10.85,1111122 
DISL,ioos:station:DISL:DISL:1,2009-02-04T21:30:00Z,30.2513,-88.0778,5.699,10.57,1111122 
DISL,ioos:station:DISL:DISL:1,2009-02-04T22:00:00Z,30.2513,-88.0778,5.782,10.66,1111122 
DISL,ioos:station:DISL:DISL:1,2009-02-04T22:30:00Z,30.2513,-88.0778,5.819,10.51,1111122 
DISL,ioos:station:DISL:DISL:1,2009-02-04T23:00:00Z,30.2513,-88.0778,5.726,10.13,1111122 
DISL,ioos:station:DISL:DISL:1,2009-02-04T23:30:00Z,30.2513,-88.0778,5.847,10.31,1111122 
DISL,ioos:station:DISL:DISL:1,2009-02-05T00:00:00Z,30.2513,-88.0778,5.896,10.65,1111122 
DISL,ioos:station:DISL:DISL:1,2009-02-05T00:30:00Z,30.2513,-88.0778,5.848,11.22,1111122 
DISL,ioos:station:DISL:DISL:1,2009-02-05T01:00:00Z,30.2513,-88.0778,5.809,11.3,1111122 
DISL,ioos:station:DISL:DISL:1,2009-02-05T01:30:00Z,30.2513,-88.0778,5.745,11.25,1111122 
DISL,ioos:station:DISL:DISL:1,2009-02-05T02:00:00Z,30.2513,-88.0778,5.688,11.19,1111122 
DISL,ioos:station:DISL:DISL:1,2009-02-05T02:30:00Z,30.2513,-88.0778,5.619,11.1,1111122 
DISL,ioos:station:DISL:DISL:1,2009-02-05T03:00:00Z,30.2513,-88.0778,5.491,10.97,1111122 
DISL,ioos:station:DISL:DISL:1,2009-02-05T03:30:00Z,30.2513,-88.0778,5.433,10.53,1111122 
DISL,ioos:station:DISL:DISL:1,2009-02-05T04:00:00Z,30.2513,-88.0778,5.321,10.29,1111122 
DISL,ioos:station:DISL:DISL:1,2009-02-05T04:30:00Z,30.2513,-88.0778,5.212,10.07,1111122 
DISL,ioos:station:DISL:DISL:1,2009-02-05T05:00:00Z,30.2513,-88.0778,5.117,9.89,1111122 
DISL,ioos:station:DISL:DISL:1,2009-02-05T05:30:00Z,30.2513,-88.0778,5.013,9.86,1111122 
DISL,ioos:station:DISL:DISL:1,2009-02-05T06:00:00Z,30.2513,-88.0778,4.961,9.78,1111122 
DISL,ioos:station:DISL:DISL:1,2009-02-05T06:30:00Z,30.2513,-88.0778,4.817,9.68,1111122 
DISL,ioos:station:DISL:DISL:1,2009-02-05T07:00:00Z,30.2513,-88.0778,4.668,9.66,1111122 
DISL,ioos:station:DISL:DISL:1,2009-02-05T07:30:00Z,30.2513,-88.0778,4.74,9.62,1111122 
DISL,ioos:station:DISL:DISL:1,2009-02-05T08:00:00Z,30.2513,-88.0778,4.545,9.53,1111122 
DISL,ioos:station:DISL:DISL:1,2009-02-05T08:30:00Z,30.2513,-88.0778,4.49,9.5,1111122 
DISL,ioos:station:DISL:DISL:1,2009-02-05T09:00:00Z,30.2513,-88.0778,4.188,9.53,1111122 
DISL,ioos:station:DISL:DISL:1,2009-02-05T09:30:00Z,30.2513,-88.0778,4.268,9.57,1111122 
DISL,ioos:station:DISL:DISL:1,2009-02-05T10:00:00Z,30.2513,-88.0778,4.147,9.65,1111122 
DISL,ioos:station:DISL:DISL:1,2009-02-05T10:30:00Z,30.2513,-88.0778,4.124,9.88,1111122 
DISL,ioos:station:DISL:DISL:1,2009-02-05T11:00:00Z,30.2513,-88.0778,4.032,9.83,1111122 
DISL,ioos:station:DISL:DISL:1,2009-02-05T11:30:00Z,30.2513,-88.0778,4.009,9.93,1111122 
DISL,ioos:station:DISL:DISL:1,2009-02-05T12:00:00Z,30.2513,-88.0778,4.039,9.69,1111122 
DISL,ioos:station:DISL:DISL:1,2009-02-05T12:30:00Z,30.2513,-88.0778,4.114,9.66,1111122 
DISL,ioos:station:DISL:DISL:1,2009-02-05T13:00:00Z,30.2513,-88.0778,4.131,9.6,1111122 
DISL,ioos:station:DISL:DISL:1,2009-02-05T13:30:00Z,30.2513,-88.0778,4.169,9.64,1111122 
DISL,ioos:station:DISL:DISL:1,2009-02-05T14:00:00Z,30.2513,-88.0778,4.199,9.68,1111122 
DISL,ioos:station:DISL:DISL:1,2009-02-05T14:30:00Z,30.2513,-88.0778,4.229,9.81,1111122 
DISL,ioos:station:DISL:DISL:1,2009-02-05T15:00:00Z,30.2513,-88.0778,4.265,8.9,1111122 
DISL,ioos:station:DISL:DISL:1,2009-02-05T15:30:00Z,30.2513,-88.0778,4.275,8.76,1111122 
DISL,ioos:station:DISL:DISL:1,2009-02-05T16:00:00Z,30.2513,-88.0778,4.336,9.07,1111122 
DISL,ioos:station:DISL:DISL:1,2009-02-05T16:30:00Z,30.2513,-88.0778,4.391,9.19,1111122 
DISL,ioos:station:DISL:DISL:1,2009-02-05T17:00:00Z,30.2513,-88.0778,4.494,9.49,1111122 
DISL,ioos:station:DISL:DISL:1,2009-02-05T17:30:00Z,30.2513,-88.0778,4.609,9.79,1111122 
DISL,ioos:station:DISL:DISL:1,2009-02-05T18:00:00Z,30.2513,-88.0778,4.696,10.04,1111122 
DISL,ioos:station:DISL:DISL:1,2009-02-05T18:30:00Z,30.2513,-88.0778,4.871,9.96,1111122 
DISL,ioos:station:DISL:DISL:1,2009-02-05T19:00:00Z,30.2513,-88.0778,4.919,10.64,1111122 
DISL,ioos:station:DISL:DISL:1,2009-02-05T19:30:00Z,30.2513,-88.0778,5.061,10.79,1111122 
DISL,ioos:station:DISL:DISL:1,2009-02-05T20:00:00Z,30.2513,-88.0778,5.178,11.11,1111122 
DISL,ioos:station:DISL:DISL:1,2009-02-05T20:30:00Z,30.2513,-88.0778,5.323,11.01,1111122 
DISL,ioos:station:DISL:DISL:1,2009-02-05T21:00:00Z,30.2513,-88.0778,5.408,11.33,1111122 
DISL,ioos:station:DISL:DISL:1,2009-02-05T21:30:00Z,30.2513,-88.0778,5.556,11.78,1111122 
DISL,ioos:station:DISL:DISL:1,2009-02-05T22:00:00Z,30.2513,-88.0778,5.659,12.01,1111122 
DISL,ioos:station:DISL:DISL:1,2009-02-05T22:30:00Z,30.2513,-88.0778,5.756,12.08,1111122 
DISL,ioos:station:DISL:DISL:1,2009-02-05T23:00:00Z,30.2513,-88.0778,5.877,12.12,1111122 
DISL,ioos:station:DISL:DISL:1,2009-02-05T23:30:00Z,30.2513,-88.0778,5.953,12.15,1111122 
DISL,ioos:station:DISL:DISL:1,2009-02-06T00:00:00Z,30.2513,-88.0778,6.037,12.12,1111122 
DISL,ioos:station:DISL:DISL:1,2009-02-06T00:30:00Z,30.2513,-88.0778,6.086,12.03,1111122 
DISL,ioos:station:DISL:DISL:1,2009-02-06T01:00:00Z,30.2513,-88.0778,6.215,11.54,1111122 
DISL,ioos:station:DISL:DISL:1,2009-02-06T01:30:00Z,30.2513,-88.0778,6.173,11.13,1111122 
DISL,ioos:station:DISL:DISL:1,2009-02-06T02:00:00Z,30.2513,-88.0778,6.192,10.92,1111122 
DISL,ioos:station:DISL:DISL:1,2009-02-06T02:30:00Z,30.2513,-88.0778,6.172,11.5,1111122 
DISL,ioos:station:DISL:DISL:1,2009-02-06T03:00:00Z,30.2513,-88.0778,6.152,11.73,1111122 
DISL,ioos:station:DISL:DISL:1,2009-02-06T03:30:00Z,30.2513,-88.0778,6.034,11.7,1111122 
DISL,ioos:station:DISL:DISL:1,2009-02-06T04:00:00Z,30.2513,-88.0778,5.901,11.66,1111122 
DISL,ioos:station:DISL:DISL:1,2009-02-06T04:30:00Z,30.2513,-88.0778,5.852,11.58,1111122 
DISL,ioos:station:DISL:DISL:1,2009-02-06T05:00:00Z,30.2513,-88.0778,5.774,11.4,1111122 
DISL,ioos:station:DISL:DISL:1,2009-02-06T05:30:00Z,30.2513,-88.0778,5.624,11.17,1111122 
DISL,ioos:station:DISL:DISL:1,2009-02-06T06:00:00Z,30.2513,-88.0778,5.519,9.67,1111122 
DISL,ioos:station:DISL:DISL:1,2009-02-06T06:30:00Z,30.2513,-88.0778,5.433,9.32,1111122 
DISL,ioos:station:DISL:DISL:1,2009-02-06T07:00:00Z,30.2513,-88.0778,5.346,9.35,1111122 
DISL,ioos:station:DISL:DISL:1,2009-02-06T07:30:00Z,30.2513,-88.0778,5.259,9.27,1111122 
DISL,ioos:station:DISL:DISL:1,2009-02-06T08:00:00Z,30.2513,-88.0778,5.184,9.23,1111122 
DISL,ioos:station:DISL:DISL:1,2009-02-06T08:30:00Z,30.2513,-88.0778,5.072,9.29,1111122 
DISL,ioos:station:DISL:DISL:1,2009-02-06T09:00:00Z,30.2513,-88.0778,5.369,9.52,1111122 
DISL,ioos:station:DISL:DISL:1,2009-02-06T09:30:00Z,30.2513,-88.0778,4.845,9.89,1111122 
DISL,ioos:station:DISL:DISL:1,2009-02-06T10:00:00Z,30.2513,-88.0778,4.804,10.0,1111122 
DISL,ioos:station:DISL:DISL:1,2009-02-06T10:30:00Z,30.2513,-88.0778,4.699,9.89,1111122 
DISL,ioos:station:DISL:DISL:1,2009-02-06T11:00:00Z,30.2513,-88.0778,4.579,10.13,1111122 
DISL,ioos:station:DISL:DISL:1,2009-02-06T11:30:00Z,30.2513,-88.0778,4.545,10.54,1111122 
DISL,ioos:station:DISL:DISL:1,2009-02-06T12:00:00Z,30.2513,-88.0778,4.511,10.5,1111122 
DISL,ioos:station:DISL:DISL:1,2009-02-06T12:30:00Z,30.2513,-88.0778,4.511,10.26,1111122 
DISL,ioos:station:DISL:DISL:1,2009-02-06T13:00:00Z,30.2513,-88.0778,4.511,10.27,1111122 
DISL,ioos:station:DISL:DISL:1,2009-02-06T13:30:00Z,30.2513,-88.0778,4.52,10.18,1111122 
DISL,ioos:station:DISL:DISL:1,2009-02-06T14:00:00Z,30.2513,-88.0778,4.581,10.29,1111122 
DISL,ioos:station:DISL:DISL:1,2009-02-06T14:30:00Z,30.2513,-88.0778,4.636,10.29,1111122 